Starlink 5124

operational
NORAD ID: 54011 Int'l Des: 2022-125 Owner: SPXS Country: US Constellation: starlink
LEOCIRCULAR

Starlink 5124について

説明を読み込み中...

リアルタイム位置

3D地球を読み込み中...

次回通過

高度履歴

Altitude vs Time

uPlot chart will show altitude changes over time

軌道要素

1 54011U 22125AZ 26061.62104011 .00003705 00000-0 25087-3 0 9993
2 54011 53.2163 236.0046 0001211 102.4590 257.6537 15.08821934188531
Epoch: Mar 2, 2026 • Age: 36 hours

現在のステータス

高度 541.5 km
速度 7.59 km/s
衛星直下点 -3.70°S, 105.15°W
打ち上げ日 Oct 5, 2022
運用期間 3.4 years
タイプ internet

技術仕様

分類 Payload
質量 305.00 kg
乾燥質量 290.00 kg
総質量 305.00 kg
長さ 0.20 m
直径 2.80 m
スパン 9.00 m
形状 Box + pan
製造者 SPXS
バスタイプ Starlink
フェーズステータス In Orbit
所有者/国 SPXS/US

大規模コンステレーション

Loading constellations...